This is the latest recevied weather packets stored in our database for station/object DB0MGN-WX. If no packets are shown the sender has not sent any weather packets the latest 1 day(s).
| Time | Temp. | Humidity | Pressure | Rain* | Wind** | Luminosity | Snow |
|---|---|---|---|---|---|---|---|
| 1778064425 | 17.78° C | 60% | 1005 hPa | - | - | - | - |
| 1778064365 | 17.78° C | 60% | 1005 hPa | - | - | - | - |
| 1778064305 | 17.78° C | 60% | 1005 hPa | - | - | - | - |
| 1778063584 | 16.67° C | 67% | 1005.1 hPa | - | - | - | - |
| 1778063524 | 16.67° C | 67% | 1005 hPa | - | - | - | - |
| 1778063464 | 16.67° C | 65% | 1005 hPa | - | - | - | - |
| 1778063404 | 16.67° C | 65% | 1005.2 hPa | - | - | - | - |
| 1778063344 | 16.67° C | 65% | 1005.1 hPa | - | - | - | - |
| 1778062563 | 16.67° C | 66% | 1005.2 hPa | - | - | - | - |
| 1778062503 | 16.67° C | 65% | 1005.3 hPa | - | - | - | - |
| 1778062443 | 16.67° C | 66% | 1005.2 hPa | - | - | - | - |
| 1778062383 | 16.11° C | 66% | 1005.3 hPa | - | - | - | - |
| 1778062323 | 16.11° C | 65% | 1005.3 hPa | - | - | - | - |
| 1778062022 | 16.67° C | 64% | 1005.4 hPa | - | - | - | - |
| 1778061722 | 16.67° C | 64% | 1005.4 hPa | - | - | - | - |
| 1778061662 | 16.67° C | 64% | 1005.5 hPa | - | - | - | - |
| 1778061542 | 16.67° C | 64% | 1005.5 hPa | - | - | - | - |
| 1778061482 | 16.67° C | 65% | 1005.4 hPa | - | - | - | - |
| 1778061422 | 16.67° C | 67% | 1005.3 hPa | - | - | - | - |
| 1778061121 | 16.11° C | 68% | 1005.3 hPa | - | - | - | - |
| 1778061061 | 16.11° C | 67% | 1005.2 hPa | - | - | - | - |
| 1778060881 | 16.11° C | 70% | 1005.3 hPa | - | - | - | - |
| 1778060821 | 16.11° C | 70% | 1005.2 hPa | - | - | - | - |
| 1778060761 | 16.11° C | 69% | 1005.4 hPa | - | - | - | - |
| 1778060701 | 16.11° C | 68% | 1005.2 hPa | - | - | - | - |
* Rain since midnight (hover to see other rain measurements)
** Current wind speed in m/s (hover to see current wind gust speed)